www.pogodaiklimat.ru

Погода и климат >> Архив погоды >> Россия >> город Санкт-Петербург >> Санкт-Петербург


АРХИВ ПОГОДЫ в Санкт-Петербурге

Время (UTC), дата Ветер
(напр.,м/с)
 
Видим.   Явления Облачность Т
(С)
Тd
(С)
f
(%)
Тe
(С)
Тes
(С)
Комфортность P
(гПа)
Po
(гПа)
Тmin
(С)
Tmax
(С)
R
(мм)
R24
(мм)
S
(см)
21 8.12 ЮВ 2
{10}
4000 м слабый снег {ливн. осадки} 10/10 200 м
[Frnb Ns]
-1.7 -3.5 87 -6 -6 по сезону 998.6 997.8
00 9.12 ЮВ 1 2000 м снег {ливн. осадки} 10/10 200 м
[Frnb Ns]
-2.0 -2.9 94 -4 -4 по сезону 998.4 997.6
03 9.12 В 2 10 км {снег} 10/10 300 м
[Sc diur, vesp]
-1.6 -4.1 83 -5 -5 по сезону 998.3 997.5 -2.1 5
06 9.12 В 3 10 км {снег} 9/9 240 м
[Sc]
-1.7 -4.0 84 -7 -7 по сезону 998.8 998.0 -2.1 5 5
09 9.12 В 2 10 км 10/10 240 м
[Sc]
-1.3 -3.8 83 -5 -5 по сезону 999.3 998.5
12 9.12 ЮВ 2 10 км 10/10 400 м
[Sc]
-0.6 -3.5 81 -4 -4 по сезону 998.9 998.1
15 9.12 ЮВ 2 10 км 9/9 1500 м
[Sc]
-0.4 -3.3 81 -4 -4 по сезону 999.1 998.3
18 9.12 ЮВ 4 10 км 9/9 1500 м
[Sc]
-0.5 -3.3 81 -6 -6 по сезону 999.1 998.3 -0.4
21 9.12 В 2 10 км 9/9 1500 м
[Sc]
-0.5 -3.4 81 -4 -4 по сезону 999.5 998.7
00 10.12 В 3 10 км 10/10 1500 м
[Sc]
-0.6 -3.5 81 -5 -5 по сезону 999.2 998.4
03 10.12 ЮВ 3 10 км 10/10 1500 м
[Sc]
-0.7 -3.4 82 -5 -5 по сезону 998.9 998.1 -0.8
06 10.12 В 3 10 км 9/9 600 м
[Sc diur, vesp]
-0.9 -3.6 82 -6 -6 по сезону 999.4 998.7 -1.0 0.0 4
09 10.12 В 2 10 км 10/0
[Ac trans]
-0.7 -3.3 83 -4 -4 по сезону 1000.3 999.5
12 10.12 В 1 10 км 10/0
[Ac trans]
-1.1 -4.0 81 -3 -3 по сезону 1001.2 1000.4
15 10.12 В 1 10 км 10/0
[Ac trans]
-1.0 -3.8 81 -3 -3 по сезону 1002.6 1001.8 0.0
18 10.12 В 1 10 км 9/9 300 м
[Sc diur, vesp]
-1.2 -3.8 82 -3 -3 по сезону 1004.0 1003.2 -0.4
21 10.12 СВ 1 10 км слабый снег 10/10 200 м
[Frnb Ns]
-1.6 -3.4 88 -4 -4 по сезону 1005.4 1004.6
00 11.12 штиль 0 10 км слабый снег 10/10 200 м
[Frnb Ns]
-1.7 -3.3 89 -3 -3 по сезону 1006.9 1006.1
03 11.12 СВ 1 10 км слабый снег 10/10 300 м
[Frnb Ns]
-1.8 -3.2 90 -4 -4 по сезону 1008.2 1007.4 -1.8 2
06 11.12 СВ 1 10 км слабый снег 10/10 200 м
[Frnb Ns]
-1.3 -2.9 89 -3 -3 по сезону 1009.9 1009.1 -1.8 4 5
09 11.12 СВ 1 10 км слабый снег 10/10 300 м
[Sc]
-0.4 -2.2 88 -2 -2 по сезону 1011.7 1010.9
12 11.12 СВ 1 4000 м слабый снег 10/10 200 м
[Frnb Ns]
+0.4 -0.9 91 -2 -2 по сезону 1013.2 1012.4
15 11.12 СВ 2 10 км в посл. час снег 10/10 200 м
[St]
+0.6 -0.9 90 -3 -3 по сезону 1014.9 1014.1 2
18 11.12 С 2 10 км {снег} 10/10 270 м
[St]
+0.2 -1.7 87 -3 -3 по сезону 1016.8 1016.0 +0.6 0.8
21 11.12 С 2 10 км 10/10 300 м
[Sc]
0.0 -1.7 88 -4 -4 по сезону 1018.4 1017.6
00 12.12 С 2 10 км 10/10 300 м
[St]
0.0 -1.7 88 -4 -4 по сезону 1019.8 1019.0
03 12.12 С 2 10 км 10/10 420 м
[Sc]
-0.2 -2.7 83 -4 -4 по сезону 1021.4 1020.6 -0.2
06 12.12 С 2 10 км 10/10 600 м
[Sc]
-1.1 -4.1 80 -5 -5 по сезону 1023.4 1022.5 -1.1 3
09 12.12 С 2 10 км слабый снег 10/10 300 м
[Sc diur, vesp]
-2.0 -4.5 83 -6 -6 по сезону 1025.0 1024.2
12 12.12 С 2 10 км слабый снег 10/10 300 м
[Sc diur, vesp]
-2.1 -4.6 83 -6 -6 по сезону 1026.0 1025.2
15 12.12 С 1 10 км слабый снег 10/10 300 м
[Sc diur, vesp]
-1.3 -4.1 81 -3 -3 по сезону 1026.7 1025.9 0.2
18 12.12 С 2 10 км {снег} 10/10 300 м
[Sc diur, vesp]
-0.8 -3.4 83 -5 -5 по сезону 1027.6 1026.8 -0.8 0.2
21 12.12 СВ 1 10 км 10/10 300 м
[Sc]
-0.2 -2.5 84 -2 -2 по сезону 1028.7 1027.9
00 13.12 СВ 2 10 км 10/10 300 м
[Sc]
+0.2 -2.5 82 -3 -3 по сезону 1029.8 1029.0
03 13.12 СВ 2 10 км 10/10 300 м
[Sc]
+0.4 -2.3 82 -3 -3 по сезону 1030.4 1029.6 -1.3
06 13.12 СВ 2 10 км 10/10 300 м
[Sc]
+0.2 -2.7 81 -3 -3 по сезону 1031.2 1030.4 -1.0 3
09 13.12 СВ 2 10 км 10/10 300 м
[Sc]
-0.4 -4.2 75 -4 -4 по сезону 1032.3 1031.5
12 13.12 СВ 1 10 км 10/10 300 м
[Sc]
-0.9 -5.3 72 -3 -3 по сезону 1032.6 1031.7
15 13.12 В 2 10 км 10/10 300 м
[Sc]
-1.4 -5.6 73 -5 -5 по сезону 1033.0 1032.2
18 13.12 СВ 1 10 км 10/10 300 м
[Sc]
-1.6 -6.0 72 -3 -3 по сезону 1033.3 1032.5 +0.2
21 13.12 В 1 10 км 10/10 300 м
[Sc]
-1.9 -5.9 74 -4 -4 по сезону 1033.7 1032.9
00 14.12 В 1 10 км 10/10 300 м
[Sc]
-2.5 -6.1 76 -5 -5 по сезону 1033.9 1033.1
03 14.12 В 1 10 км 10/10 300 м
[Sc]
-2.5 -5.9 77 -5 -5 по сезону 1033.7 1032.9 -2.6
06 14.12 СВ 1 10 км 10/10 400 м
[Sc]
-2.4 -5.6 79 -4 -4 по сезону 1034.0 1033.2 -2.6 3
09 14.12 СВ 1 10 км 10/10 360 м
[Sc]
-2.4 -5.6 79 -4 -4 по сезону 1034.8 1034.0
12 14.12 СВ 1 10 км 10/10 330 м
[Sc]
-3.1 -6.0 80 -5 -5 по сезону 1035.0 1034.2
15 14.12 СВ 1 10 км 10/10 330 м
[Sc]
-3.5 -6.5 80 -6 -6 по сезону 1035.3 1034.5
18 14.12 СВ 1 10 км 10/10 400 м
[Sc]
-3.4 -6.8 77 -6 -6 по сезону 1036.0 1035.1 -2.2
21 14.12 СВ 1 10 км 10/10 450 м
[Sc]
-2.9 -6.4 77 -5 -5 по сезону 1036.0 1035.2
00 15.12 СВ 1 10 км 10/10 270 м
[Sc]
-3.3 -5.8 83 -6 -6 по сезону 1036.2 1035.4
03 15.12 С 1 10 км 10/10 330 м
[Sc]
-3.7 -6.2 83 -6 -6 по сезону 1036.5 1035.7 -3.8
06 15.12 В 1 10 км 10/10 300 м
[St]
-4.5 -6.9 83 -7 -7 по сезону 1037.0 1036.2 -4.6 3
09 15.12 В 1 10 км 10/10 300 м
[St]
-4.4 -6.9 83 -7 -7 по сезону 1038.1 1037.3
12 15.12 С 1 10 км 10/10 200 м
[St]
-4.0 -6.6 82 -6 -6 по сезону 1038.2 1037.4
15 15.12 В 1 10 км 10/10 200 м
[]
-4.2 -6.3 85 -7 -7 по сезону 1038.4 1037.6
18 15.12 В 1 10 км 10/10 100 м
[St]
-4.3 -6.0 88 -7 -7 по сезону 1038.2 1037.4 -3.9

 

Местоположение метеостанции Санкт-Петербург (город Санкт-Петербург, Россия): широта 59.97 долгота 30.30 высота над уровнем моря 6 м.

В архиве по умолчанию представлена погода в Санкт-Петербурге за последнюю неделю. Архивные данные за месяц целиком и за предыдущие месяцы, начиная с января 2011 года, Вы можете получить, выбрав интересующий диапазон дат из раскрывающегося списка и нажав кнопку "Ввод!".


*Определитесь, кто Вы:
робот инопланетянин человек

Внимание! Время в таблицах - всемирное. Для получения местного времени необходимо прибавить поправку, которая в Санкт-Петербурге равна 3 ч.

Смотрите также архив погоды в соседних городах и на ближайших метеорологических станциях:

Погода в Лисьем Носу (город Санкт-Петербург, Россия) (19 км)
Погода в Воейково (город Санкт-Петербург, Россия) (22 км)
Погода в Ломоносове (город Санкт-Петербург, Россия) (29 км)
Погода в Кронштадте (город Санкт-Петербург, Россия) (30 км)
Погода в Шлиссельбурге (Ленинградская область, Россия) (39 км)
Погода в Рощино (Ленинградская область, Россия) (48 км)
Погода в Шепелево (Ленинградская область, Россия) (58 км)
Погода в Сосново (Ленинградская область, Россия) (65 км)
Погода в Сосновом Бору (Ленинградская область, Россия) (65 км)
Погода в Белогорке (Ленинградская область, Россия) (70 км)

Пояснения к столбцам:

Ветер - указаны скорость ветра в м/с - средняя за 10 мин, порывы в срок и между сроками (в фигурных скобках) и направление, откуда дует ветер: С - северный, СВ - северо-восточный, В - восточный, ЮВ - юго-восточный, Ю - южный, ЮЗ - юго-западный, З - западный, СЗ - северо-западный.
Видимость - горизонтальная дальность видимости в метрах или километрах. При видимости от 1 до 10 км при отсутствии осадков обычно наблюдается дымка, при ухудшении видимости до 1 км и менее - туман. В сухую погоду видимость может ухудшаться дымом, пылью или мглою.
Явления - указаны атмосферные явления, наблюдавшиеся в срок или в последний час перед сроком; фигурными скобками обозначены явления, наблюдавшиеся между сроками (за 1-3 часа до срока); квадратными скобками обозначены град или гололедные отложения с указанием их диаметра в мм.
Облачность - указаны через наклонную черту общая и нижняя облачность в баллах и высота нижней границы облаков в метрах; квадратными скобками обозначены формы облаков: Ci - перистые, Cs - перисто-слоистые, Cc - перисто-кучевые, Ac - высококучевые, As - высокослоистые, Sc - слоисто-кучевые, Ns - слоисто-дождевые, Cu - кучевые, Cb - кучево-дождевые. Подробнее классификацию облаков см. в Атласе облаков (PDF).
T - Температура воздуха - температура, измеренная на высоте 2 м над землей.
Td - Температура точки росы - температура, при понижении до которой содержащийся в воздухе водяной пар достигнет насыщения.
f - Относительная влажность воздуха - влажноcть воздуха, измеренная на высоте 2 м над землей.
Te - Эффективная температура - температура, которую ощущает одетый по сезону человек в тени. Характеристика душности погоды. При расчете учитывается влияние влажности воздуха и скорости ветра на теплоощущения человека.
Tes - Эффективная температура на солнце - температура, которую ощущает человек, с поправкой на солнечный нагрев. Характеристика знойности погоды. Зависит от высоты солнца над горизонтом, облачности и скорости ветра. Ночью, в пасмурную погоду, а также при ветре 12 м/с и более поправка равна нулю.
P - Атмосферное давление - приведенное к уровню моря атмосферное давление.
Po - Атмосферное давление - измеренное на уровне метеостанции атмосферное давление.
Tmin - Минимальная температура - минимум температуры воздуха на высоте 2 м над землей.
Tmax - Максимальная температура - максимум температуры воздуха на высоте 2 м над землей.
R - Количество осадков - Количество выпавших осадков за период времени, мм. При наведении курсора мыши на число - период времени, за который выпало указанное количество осадков.
R24 - Количество осадков - Количество выпавших осадков за 24 часа, мм.
S - Снежный покров - Высота снежного покрова, см. При наведении курсора мыши на число - состояние снежного покрова и степень покрытия местности в баллах.